Zurück zum Katalog

KUIPER-00180

AktivKommunikationLEO
NORAD 67768·PAYLOAD·🇺🇸 United States

Gestartet Feb 12, 2026 von Guiana Space Centre

Loading…

Nächste Überflüge (nächste 24 Stunden)

TLE

AktuellSource: CelesTrak SupGP

Epoche: Sep 14, 2026, 20:10 UTC

1 67768C 26030E   26257.84062500  .00004487  00000+0  58746-3 0  2574
2 67768  51.8971  91.6756 0000794 113.3798  58.9206 14.79922706    11

Verfolge KUIPER-00180 in Echtzeit mit AllMySat

Download on the App Store